[[{"header":{"parameterUnit":"m.s-1","parameterCategory":2,"la1":30.2991,"la2":30.254,"lo1":-89.0895,"lo2":-89.0444,"dy":0.0017,"dx":0.0017,"nx":28,"ny":28,"refTime":"2024-10-05T09:00:00:Z","depth":"0","parameterNumber":2,"parameterNumberName":"U-component_of_CURRENTS"},"data":[0,0,0,0,0,0,0,0,0,0,0,0,0,0,0,0,0,0,0,0,0,0,0,0,0,0,0,0,0,0,0,0,0,0,0,0,0,0,0,0,0,0,0,0,0,0,0,0,0,0,0,0,0,0,0,0,0,0,-0.2497,-0.2497,0,-0.251,-0.251,-0.251,-0.2474,-0.2473,-0.2472,-0.2471,-0.2418,-0.2417,-0.2416,0,0,0,0,0,0,0,0,0,0,0,0,0,-0.2426,-0.2428,-0.2497,-0.2497,-0.2497,-0.251,-0.251,-0.251,-0.2474,-0.2473,-0.2472,-0.2471,-0.2418,-0.2417,-0.2416,0,0,0,0,0,0,0,0,0,0,0,0,0,-0.2447,-0.2428,-0.2496,-0.2483,-0.2482,-0.251,-0.251,-0.251,-0.2474,-0.2473,-0.2471,-0.247,-0.2418,-0.2417,-0.2416,-0.2437,0,0,-0.2414,-0.2413,0,0,0,0,0,0,0,0,-0.2446,-0.245,-0.2484,-0.2484,-0.2483,-0.2491,-0.2466,-0.2483,-0.2474,-0.2474,-0.2471,-0.247,-0.2439,-0.2436,-0.2439,-0.2435,-0.2432,-0.2413,-0.2413,-0.2413,-0.2412,0,0,0,0,0,0,0,-0.2445,-0.2449,-0.2499,-0.2485,-0.2484,-0.2472,-0.2473,-0.2469,-0.246,-0.2474,-0.2472,-0.2478,-0.2437,-0.244,-0.2437,-0.2431,-0.2413,-0.2413,-0.2412,-0.2412,-0.2439,-0.2441,0,0,0,0,0,0,-0.2451,-0.2448,-0.2499,-0.25,-0.2464,-0.2474,-0.2476,-0.2488,-0.2462,-0.2458,-0.248,-0.2477,-0.2442,-0.2438,-0.2435,-0.2463,-0.2413,-0.2412,-0.2411,-0.2438,-0.244,-0.2441,0,0,0,0,0,0,-0.245,-0.2456,-0.2498,-0.2475,-0.248,-0.2477,-0.2491,-0.2489,-0.2488,-0.2467,-0.2461,-0.248,-0.2441,-0.2436,-0.2437,-0.246,-0.2411,-0.241,-0.2437,-0.2439,-0.244,-0.2515,0,0,0,0,0,0,-0.2448,-0.2455,-0.2463,-0.2476,-0.2482,-0.2522,-0.2492,-0.249,-0.2495,-0.2491,-0.2466,-0.246,-0.2439,-0.2439,-0.2436,-0.2458,-0.241,-0.2435,-0.2437,-0.244,-0.2511,-0.2519,-0.2526,0,0,0,0,0,-0.2445,-0.2463,-0.2463,-0.2469,-0.2494,-0.2523,-0.2525,-0.2515,-0.2496,-0.2507,-0.2489,-0.2461,-0.2452,-0.2439,-0.2436,-0.2458,-0.2434,-0.2437,-0.244,-0.2507,-0.2517,-0.2526,0,0,0,0,0,0,-0.2438,-0.2462,-0.2462,-0.2486,-0.2507,-0.2518,-0.2524,-0.2521,-0.2516,-0.2505,-0.2478,-0.2472,-0.2482,-0.2462,-0.2449,-0.2473,-0.2438,-0.2441,-0.2491,-0.25,-0.2508,-0.2512,-0.2409,0,0,0,0,0,-0.2443,-0.2456,-0.2484,-0.2501,-0.2513,-0.2519,-0.2527,-0.2527,-0.2528,-0.2523,-0.2509,-0.2494,-0.2494,-0.2489,-0.2483,-0.2498,-0.2484,-0.251,-0.2518,-0.2524,-0.2526,-0.253,-0.2538,-0.245,-0.245,-0.245,0,0,-0.2442,-0.2458,-0.2465,-0.25,-0.2508,-0.2542,-0.2519,-0.2538,-0.2564,-0.2519,-0.2536,-0.2521,-0.2504,-0.2521,-0.2523,-0.2505,-0.2545,-0.2528,-0.2534,-0.2532,-0.2534,-0.2542,-0.255,-0.2452,-0.2452,-0.2452,0,0,-0.2454,-0.2467,-0.2484,-0.2512,-0.2539,-0.2552,-0.2562,-0.2581,-0.2583,-0.2606,-0.2581,-0.2582,-0.2577,-0.2576,-0.2573,-0.2622,-0.2586,-0.2615,-0.2657,-0.2661,-0.2668,-0.2674,-0.2681,-0.2687,-0.2618,-0.2618,-0.2619,0,-0.2451,-0.2484,-0.2495,-0.253,-0.2554,-0.2562,-0.2597,-0.2615,-0.2631,-0.2638,-0.2618,-0.2623,-0.2608,-0.2634,-0.2648,-0.264,-0.2631,-0.2623,-0.2671,-0.2677,-0.2682,-0.2687,-0.2693,-0.2622,-0.2622,-0.2622,-0.2621,0,-0.248,-0.2515,-0.2531,-0.2577,-0.2607,-0.2638,-0.2673,-0.2694,-0.2694,-0.2706,-0.2725,-0.2711,-0.2708,-0.2712,-0.2693,-0.2725,-0.2705,-0.2681,-0.2648,-0.2695,-0.2698,-0.2703,-0.2628,-0.2627,-0.2625,-0.2624,0,0,-0.244,-0.2533,-0.2535,-0.2569,-0.2634,-0.2657,-0.2712,-0.2756,-0.278,-0.2793,-0.2821,-0.2825,-0.2803,-0.2799,-0.2779,-0.2786,-0.2819,-0.2749,-0.2747,-0.2756,-0.2829,-0.2782,-0.2782,-0.2798,-0.2799,-0.28,-0.2822,0,-0.2453,-0.2526,-0.2571,-0.2637,-0.2677,-0.272,-0.2771,-0.2811,-0.2833,-0.2866,-0.2863,-0.2876,-0.2842,-0.2835,-0.2842,-0.2821,-0.2832,-0.2815,-0.2782,-0.2781,-0.2732,-0.2786,-0.268,-0.2687,-0.2827,-0.2827,-0.2828,0,-0.2454,-0.2506,-0.2577,-0.2669,-0.2688,-0.273,-0.2795,-0.2842,-0.29,-0.2916,-0.2933,-0.2929,-0.2947,-0.2906,-0.2905,-0.2892,-0.2867,-0.2852,-0.2852,-0.2782,-0.2741,-0.2659,-0.269,-0.2672,-0.2834,-0.2834,-0.2833,0,-0.2399,-0.2502,-0.2554,-0.2589,-0.2698,-0.2726,-0.2773,-0.2842,-0.2876,-0.2938,-0.2958,-0.2983,-0.298,-0.2969,-0.2931,-0.2918,-0.2926,-0.2903,-0.2844,-0.284,-0.273,-0.2715,-0.2735,-0.2906,-0.2906,-0.2906,-0.2906,0,-0.2389,-0.2426,-0.253,-0.256,-0.2605,-0.2693,-0.2741,-0.2793,-0.2872,-0.2909,-0.2961,-0.2984,-0.299,-0.2991,-0.2961,-0.2915,-0.2946,-0.2862,-0.2846,-0.2754,-0.2742,-0.2703,-0.2709,-0.2907,-0.2907,-0.2907,-0.2907,0,-0.2314,-0.2395,-0.2448,-0.2554,-0.2581,-0.2602,-0.2702,-0.2739,-0.2826,-0.2878,-0.2897,-0.2978,-0.2993,-0.2997,-0.2986,-0.2937,-0.2861,-0.2883,-0.2779,-0.275,-0.2674,-0.2688,-0.2659,-0.2584,-0.2834,-0.2833,-0.2833,0,-0.2283,-0.2306,-0.2401,-0.2422,-0.2464,-0.2521,-0.2561,-0.268,-0.2727,-0.286,-0.2874,-0.2938,-0.2958,-0.295,-0.2906,-0.2871,-0.2827,-0.273,-0.2687,-0.2668,-0.2672,-0.2659,-0.2597,-0.2579,-0.2576,-0.2574,-0.2572,0,-0.2199,-0.2229,-0.227,-0.2312,-0.2352,-0.2405,-0.2476,-0.2513,-0.2655,-0.2714,-0.2793,-0.2833,-0.2877,-0.282,-0.2791,-0.2736,-0.266,-0.268,-0.2682,-0.2499,-0.2462,-0.2381,-0.2579,-0.2551,-0.2553,-0.2555,-0.2556,-0.2557,-0.2105,-0.2102,-0.2149,-0.2177,-0.2222,-0.2258,-0.2258,-0.2362,-0.2419,-0.2499,-0.2634,-0.2683,-0.2703,-0.2667,-0.2623,-0.2512,-0.254,-0.242,-0.2448,-0.2445,-0.2342,-0.2501,-0.2439,-0.2441,-0.2442,-0.2443,-0.2444,0,-0.1979,-0.1994,-0.2013,-0.2041,-0.2032,-0.2108,-0.2171,-0.2154,-0.2174,-0.2318,-0.2382,-0.249,-0.2438,-0.2465,-0.24,-0.2303,-0.2224,-0.2237,-0.2194,-0.2147,-0.23,-0.2257,-0.2125,-0.2125,-0.2125,-0.2125,-0.2125,-0.2125,-0.1913,-0.1885,-0.1899,-0.1837,-0.1853,-0.1799,-0.1804,-0.1809,-0.1876,-0.1958,-0.2092,-0.2254,-0.2305,-0.2437,-0.2319,-0.2205,-0.2127,-0.2059,-0.208,-0.2205,-0.2224,-0.2242,-0.2203,-0.2062,-0.2062,-0.1835,-0.1834,-0.1832]},{"header":{"parameterUnit":"m.s-1","parameterCategory":2,"la1":30.2991,"la2":30.254,"lo1":-89.0895,"lo2":-89.0444,"dy":0.0017,"dx":0.0017,"nx":28,"ny":28,"refTime":"2024-10-05T09:00:00:Z","depth":"0","parameterNumber":3,"parameterNumberName":"V-component_of_CURRENTS"},"data":[0,0,0,0,0,0,0,0,0,0,0,0,0,0,0,0,0,0,0,0,0,0,0,0,0,0,0,0,0,0,0,0,0,0,0,0,0,0,0,0,0,0,0,0,0,0,0,0,0,0,0,0,0,0,0,0,0,0,-0.0292,-0.0291,0,-0.0202,-0.0201,-0.02,-0.0154,-0.0154,-0.0154,-0.0154,-0.0037,-0.0034,-0.003,0,0,0,0,0,0,0,0,0,0,0,0,0,-0.0374,-0.0373,-0.0292,-0.0291,-0.029,-0.0202,-0.0201,-0.02,-0.0154,-0.0154,-0.0154,-0.0154,-0.0038,-0.0034,-0.003,0,0,0,0,0,0,0,0,0,0,0,0,0,-0.0317,-0.0373,-0.0292,-0.0256,-0.0252,-0.0203,-0.0201,-0.02,-0.0154,-0.0154,-0.0154,-0.0154,-0.0039,-0.0034,-0.003,-0.0002,0,0,-0.0016,-0.0013,0,0,0,0,0,0,0,0,-0.032,-0.0314,-0.0263,-0.0259,-0.0254,-0.0189,-0.0187,-0.0132,-0.0154,-0.0191,-0.0154,-0.0154,-0.0085,-0.0077,-0.006,0.0003,0.0008,-0.0015,-0.0012,-0.001,-0.0009,0,0,0,0,0,0,0,-0.0324,-0.0317,-0.0256,-0.0261,-0.0256,-0.0228,-0.022,-0.0176,-0.0139,-0.0188,-0.0184,-0.0175,-0.0083,-0.0065,-0.0057,0.001,-0.0015,-0.0011,-0.0008,-0.0006,0.0105,0.0105,0,0,0,0,0,0,-0.0338,-0.0321,-0.0259,-0.0253,-0.0288,-0.0227,-0.0218,-0.021,-0.014,-0.0129,-0.0175,-0.0173,-0.0073,-0.0063,-0.0053,-0.0018,-0.001,-0.0006,-0.0003,0.0105,0.0105,0.0105,0,0,0,0,0,0,-0.034,-0.0333,-0.0263,-0.0285,-0.0274,-0.0226,-0.0217,-0.0208,-0.0192,-0.013,-0.0119,-0.0168,-0.0072,-0.0059,-0.0015,-0.0013,-0.0004,0.0,0.0104,0.0105,0.0105,0.0052,0,0,0,0,0,0,-0.0343,-0.0335,-0.0336,-0.0286,-0.0274,-0.0241,-0.0217,-0.0207,-0.0186,-0.0183,-0.012,-0.0109,-0.0071,-0.0022,-0.001,-0.0007,0.0004,0.0104,0.0104,0.0105,0.0054,0.005,0.0048,0,0,0,0,0,-0.0346,-0.0349,-0.0337,-0.0329,-0.0276,-0.0241,-0.0232,-0.0197,-0.0186,-0.0182,-0.0137,-0.0111,-0.0012,-0.0018,-0.0004,0.0,0.0104,0.0104,0.0105,0.0055,0.0051,0.0048,0,0,0,0,0,0,-0.0384,-0.0343,-0.0329,-0.0319,-0.0287,-0.0234,-0.0226,-0.0202,-0.0163,-0.0161,-0.0105,-0.009,-0.0052,-0.0018,-0.0026,0.0033,0.0049,0.0052,0.0006,0.0003,0.0,-0.0019,0.0008,0,0,0,0,0,-0.0394,-0.0387,-0.0342,-0.0335,-0.0322,-0.0276,-0.0258,-0.0235,-0.0193,-0.0176,-0.0131,-0.0083,-0.0038,-0.0013,0.003,0.0065,0.01,0.0076,0.0073,0.007,0.0064,0.012,0.0122,0.0106,0.0106,0.0106,0,0,-0.0407,-0.0384,-0.038,-0.0343,-0.0316,-0.0304,-0.0265,-0.0244,-0.023,-0.0169,-0.0137,-0.0091,-0.0031,0.0007,0.0027,0.0035,0.0093,0.0071,0.0068,0.0063,0.0121,0.0122,0.0124,0.0106,0.0106,0.0106,0,0,-0.0436,-0.041,-0.0417,-0.0395,-0.036,-0.0328,-0.0325,-0.0276,-0.0249,-0.0213,-0.0165,-0.0119,-0.0054,-0.0008,0.0023,0.0031,0.0075,0.0042,0.0015,0.0069,0.0071,0.0073,0.0116,0.0122,0.0041,0.0041,0.0041,0,-0.0455,-0.0457,-0.0414,-0.0416,-0.0403,-0.0344,-0.035,-0.0311,-0.0252,-0.0228,-0.0213,-0.0109,-0.0061,-0.0004,-0.0004,0.0024,0.0057,0.0022,0.0065,0.0068,0.007,0.0115,0.0122,0.0039,0.0039,0.0039,0.004,0,-0.0488,-0.0492,-0.0493,-0.0477,-0.0454,-0.0449,-0.0393,-0.0364,-0.0325,-0.0282,-0.0221,-0.0149,-0.0088,-0.0065,-0.0031,0.0014,0.0031,0.0053,0.007,0.0069,0.0115,0.0124,0.0035,0.0036,0.0037,0.0037,0,0,-0.0521,-0.0521,-0.052,-0.0534,-0.0489,-0.0477,-0.0444,-0.0397,-0.0377,-0.0309,-0.0277,-0.0192,-0.0148,-0.0111,-0.0055,-0.0009,0.004,0.0022,0.0026,0.0057,0.0153,0.0206,0.0221,0.0069,0.007,0.0071,0.0177,0,-0.0562,-0.06,-0.0572,-0.0595,-0.0611,-0.0547,-0.0523,-0.0469,-0.0409,-0.036,-0.0269,-0.0219,-0.0165,-0.0139,-0.008,0.0014,0.0061,0.0009,0.0156,0.016,0.0202,0.0232,0.0266,0.0367,0.0185,0.0187,0.0188,0,-0.06,-0.0624,-0.0667,-0.0669,-0.0666,-0.0661,-0.0611,-0.0581,-0.0486,-0.044,-0.0362,-0.0288,-0.0194,-0.0161,0.0002,-0.0034,0.0048,0.0118,0.0124,0.0197,0.023,0.0342,0.039,0.0558,0.0202,0.0201,0.02,0,-0.0661,-0.0684,-0.0726,-0.0728,-0.0716,-0.0711,-0.0689,-0.0609,-0.0584,-0.0489,-0.0461,-0.0331,-0.0268,-0.0143,0.0016,0.0008,0.0186,0.02,0.0324,0.0328,0.0399,0.0407,0.0622,0.03,0.0299,0.0299,0.0299,0,-0.072,-0.0751,-0.0764,-0.0791,-0.0825,-0.0782,-0.0784,-0.0736,-0.0668,-0.0641,-0.0513,-0.0462,-0.0263,-0.0129,0.0003,0.0203,0.0187,0.0327,0.0366,0.0381,0.0387,0.0569,0.0622,0.0303,0.0302,0.0301,0.0301,0,-0.0782,-0.0793,-0.0847,-0.0859,-0.0863,-0.0884,-0.0865,-0.0861,-0.0783,-0.0743,-0.0718,-0.055,-0.0359,-0.0156,0.0063,0.0192,0.0472,0.0432,0.0434,0.0471,0.0745,0.0791,0.1021,0.11,0.0593,0.0595,0.0597,0,-0.082,-0.0859,-0.0909,-0.0945,-0.0956,-0.0977,-0.099,-0.093,-0.0919,-0.0796,-0.0785,-0.0591,-0.0439,-0.0084,0.0188,0.0458,0.0565,0.0629,0.0628,0.0781,0.0861,0.0893,0.0943,0.0698,0.0701,0.0703,0.0704,0,-0.0889,-0.0907,-0.0951,-0.1035,-0.1073,-0.1107,-0.1116,-0.1126,-0.104,-0.0985,-0.0874,-0.074,-0.036,-0.0015,0.0355,0.0514,0.0757,0.0678,0.0848,0.0976,0.1014,0.11,0.0597,0.0722,0.072,0.0719,0.0718,0.0717,-0.0928,-0.0981,-0.1045,-0.1116,-0.1169,-0.122,-0.1246,-0.1234,-0.1209,-0.1103,-0.0959,-0.0728,-0.02,0.0346,0.054,0.0975,0.0922,0.1094,0.1141,0.1161,0.124,0.0771,0.0932,0.0932,0.0931,0.0931,0.0931,0,-0.0976,-0.1038,-0.112,-0.1204,-0.1274,-0.1278,-0.1316,-0.1319,-0.1296,-0.1151,-0.1005,-0.0442,0.0082,0.0567,0.1192,0.1423,0.1459,0.1533,0.1593,0.1623,0.1232,0.1241,0.1464,0.1464,0.1464,0.1464,0.1464,0.1464,-0.1005,-0.1097,-0.1145,-0.1272,-0.1328,-0.1399,-0.1421,-0.1404,-0.1318,-0.1073,-0.0772,-0.0525,0.0209,0.1236,0.1816,0.1865,0.2029,0.2022,0.2106,0.1847,0.1809,0.1774,0.1799,0.2136,0.2136,0.2482,0.2486,0.2488]}],[{"header":{"parameterUnit":"m.s-1","parameterCategory":2,"la1":30.2991,"la2":30.254,"lo1":-89.0895,"lo2":-89.0444,"dy":0.0017,"dx":0.0017,"nx":28,"ny":28,"refTime":"2024-10-05T09:00:00:Z","depth":"2","parameterNumber":2,"parameterNumberName":"U-component_of_CURRENTS"},"data":[0,0,0,0,0,0,0,0,0,0,0,0,0,0,0,0,0,0,0,0,0,0,0,0,0,0,0,0,0,0,0,0,0,0,0,0,0,0,0,0,0,0,0,0,0,0,0,0,0,0,0,0,0,0,0,0,0,0,-0.2249,-0.2249,0,-0.226,-0.226,-0.226,-0.2233,-0.2232,-0.2232,-0.2231,-0.2193,-0.2192,-0.2192,0,0,0,0,0,0,0,0,0,0,0,0,0,-0.2187,-0.2188,-0.2249,-0.2249,-0.2249,-0.226,-0.226,-0.226,-0.2233,-0.2232,-0.2232,-0.2231,-0.2193,-0.2192,-0.2192,0,0,0,0,0,0,0,0,0,0,0,0,0,-0.2205,-0.2189,-0.2248,-0.2239,-0.2239,-0.226,-0.226,-0.226,-0.2233,-0.2232,-0.2231,-0.2231,-0.2193,-0.2192,-0.2192,-0.2207,0,0,-0.219,-0.219,0,0,0,0,0,0,0,0,-0.2204,-0.2207,-0.224,-0.224,-0.2239,-0.2247,-0.2225,-0.2241,-0.2234,-0.2232,-0.2231,-0.223,-0.2209,-0.2207,-0.2208,-0.2205,-0.2203,-0.219,-0.2189,-0.2189,-0.2189,0,0,0,0,0,0,0,-0.2203,-0.2207,-0.2251,-0.2241,-0.224,-0.2229,-0.2231,-0.2228,-0.2223,-0.2233,-0.2231,-0.2237,-0.2207,-0.2209,-0.2207,-0.2203,-0.219,-0.2189,-0.2189,-0.2189,-0.2221,-0.2222,0,0,0,0,0,0,-0.2209,-0.2206,-0.225,-0.2251,-0.2222,-0.2231,-0.2233,-0.2243,-0.2224,-0.2221,-0.2238,-0.2236,-0.221,-0.2207,-0.2205,-0.2239,-0.2189,-0.2188,-0.2188,-0.222,-0.2222,-0.2223,0,0,0,0,0,0,-0.2208,-0.2213,-0.225,-0.223,-0.2234,-0.2234,-0.2245,-0.2244,-0.2247,-0.2229,-0.2224,-0.2243,-0.2209,-0.2206,-0.2212,-0.2236,-0.2188,-0.2188,-0.2219,-0.2221,-0.2222,-0.2294,0,0,0,0,0,0,-0.2206,-0.2213,-0.2221,-0.2231,-0.2236,-0.2271,-0.2246,-0.2245,-0.2253,-0.225,-0.2232,-0.2227,-0.2208,-0.2213,-0.2211,-0.2234,-0.2187,-0.2217,-0.2219,-0.2222,-0.2291,-0.2299,-0.2306,0,0,0,0,0,-0.2204,-0.2221,-0.2221,-0.2227,-0.2248,-0.2273,-0.2274,-0.2268,-0.2255,-0.2265,-0.2252,-0.2228,-0.2226,-0.2214,-0.2211,-0.2235,-0.2216,-0.2219,-0.2221,-0.2287,-0.2297,-0.2305,0,0,0,0,0,0,-0.2201,-0.222,-0.2221,-0.2243,-0.2261,-0.2269,-0.2277,-0.2275,-0.2275,-0.2267,-0.2244,-0.224,-0.2254,-0.2236,-0.2223,-0.2251,-0.2217,-0.222,-0.2268,-0.2277,-0.2285,-0.2288,-0.2187,0,0,0,0,0,-0.2205,-0.2218,-0.2241,-0.2257,-0.2268,-0.2274,-0.2282,-0.2283,-0.2285,-0.2283,-0.2274,-0.2264,-0.2265,-0.2264,-0.226,-0.2276,-0.2264,-0.229,-0.2298,-0.2304,-0.2306,-0.2313,-0.2321,-0.2232,-0.2232,-0.2232,0,0,-0.2207,-0.222,-0.2227,-0.2257,-0.2265,-0.2295,-0.2275,-0.2295,-0.2319,-0.228,-0.2301,-0.229,-0.2276,-0.2295,-0.2299,-0.2282,-0.2326,-0.2308,-0.2313,-0.2312,-0.2316,-0.2325,-0.2333,-0.2234,-0.2234,-0.2234,0,0,-0.222,-0.2232,-0.2248,-0.2272,-0.2297,-0.2308,-0.2318,-0.2336,-0.2341,-0.2365,-0.2344,-0.235,-0.2349,-0.235,-0.2348,-0.2396,-0.2365,-0.2392,-0.2434,-0.2441,-0.2448,-0.2454,-0.2461,-0.2467,-0.2396,-0.2397,-0.2397,0,-0.222,-0.2248,-0.2258,-0.2288,-0.231,-0.2319,-0.235,-0.2368,-0.2385,-0.2395,-0.2379,-0.239,-0.2379,-0.2406,-0.2422,-0.2414,-0.2408,-0.2401,-0.2451,-0.2456,-0.2461,-0.2467,-0.2473,-0.24,-0.24,-0.2399,-0.2399,0,-0.2246,-0.2278,-0.2292,-0.2333,-0.236,-0.2388,-0.2421,-0.2443,-0.2448,-0.246,-0.2485,-0.2474,-0.2476,-0.2482,-0.2465,-0.25,-0.2482,-0.246,-0.2428,-0.2475,-0.2478,-0.2483,-0.2406,-0.2404,-0.2403,-0.2402,0,0,-0.2216,-0.2294,-0.2298,-0.2328,-0.2386,-0.2406,-0.2459,-0.2501,-0.2528,-0.2543,-0.2576,-0.2583,-0.2568,-0.2565,-0.255,-0.2559,-0.2596,-0.2527,-0.2525,-0.2534,-0.2611,-0.2561,-0.2561,-0.2578,-0.2579,-0.258,-0.2603,0,-0.2229,-0.229,-0.233,-0.239,-0.2424,-0.2465,-0.2514,-0.2554,-0.2578,-0.2614,-0.2616,-0.2635,-0.2604,-0.2604,-0.2612,-0.2597,-0.2609,-0.2591,-0.2564,-0.2563,-0.2513,-0.2566,-0.2359,-0.2358,-0.2608,-0.2608,-0.2609,0,-0.2229,-0.2274,-0.2337,-0.242,-0.2437,-0.2477,-0.2542,-0.2586,-0.2647,-0.2666,-0.2689,-0.269,-0.2713,-0.2675,-0.268,-0.2667,-0.2646,-0.2633,-0.2633,-0.2562,-0.2522,-0.2349,-0.2357,-0.2616,-0.2616,-0.2615,-0.2615,0,-0.2182,-0.2272,-0.2319,-0.2349,-0.2448,-0.2478,-0.2523,-0.2591,-0.2626,-0.2693,-0.2716,-0.2746,-0.2749,-0.2742,-0.271,-0.2698,-0.271,-0.2687,-0.2627,-0.2623,-0.2429,-0.2406,-0.2693,-0.2693,-0.2693,-0.2693,-0.2693,0,-0.2172,-0.2206,-0.2299,-0.2326,-0.2371,-0.2451,-0.2501,-0.2552,-0.2631,-0.267,-0.2725,-0.2748,-0.2762,-0.2767,-0.274,-0.2698,-0.2731,-0.2645,-0.2629,-0.245,-0.243,-0.2631,-0.2624,-0.2694,-0.2694,-0.2694,-0.2693,0,-0.2106,-0.2177,-0.2225,-0.2323,-0.2349,-0.2372,-0.2469,-0.2506,-0.2594,-0.2647,-0.2668,-0.2749,-0.2766,-0.2774,-0.2768,-0.2721,-0.2697,-0.267,-0.2463,-0.2423,-0.2602,-0.2598,-0.262,-0.2619,-0.2618,-0.2617,-0.2616,0,-0.2077,-0.2097,-0.2185,-0.2205,-0.2245,-0.2302,-0.234,-0.2454,-0.2499,-0.263,-0.2644,-0.2711,-0.2725,-0.2721,-0.2671,-0.2637,-0.2675,-0.2409,-0.2351,-0.2614,-0.2597,-0.2595,-0.2593,-0.2125,-0.212,-0.2116,-0.2113,0,-0.2001,-0.2029,-0.2066,-0.2106,-0.2145,-0.2193,-0.2261,-0.2295,-0.243,-0.2487,-0.2559,-0.2594,-0.2629,-0.2513,-0.2484,-0.2421,-0.2404,-0.2329,-0.2646,-0.2184,-0.2151,-0.2133,-0.2146,-0.2078,-0.2081,-0.2084,-0.2086,-0.2087,-0.1917,-0.1914,-0.1956,-0.1982,-0.2025,-0.2055,-0.2053,-0.2147,-0.2197,-0.226,-0.2389,-0.2383,-0.2388,-0.2263,-0.2166,-0.2088,-0.2249,-0.2114,-0.2124,-0.2139,-0.2085,-0.2053,-0.1952,-0.1954,-0.1957,-0.1959,-0.196,0,-0.18,-0.1814,-0.183,-0.1855,-0.1846,-0.1918,-0.1971,-0.1946,-0.1955,-0.2055,-0.2102,-0.194,-0.1894,-0.1909,-0.1757,-0.173,-0.1685,-0.1632,-0.1564,-0.1601,-0.1633,-0.1552,-0.1277,-0.1275,-0.1273,-0.1272,0,0,-0.1739,-0.171,-0.1721,-0.1661,-0.1678,-0.1622,-0.1623,-0.161,-0.164,-0.1613,-0.1629,-0.1807,-0.1865,-0.1578,-0.1506,-0.1373,-0.1463,-0.1297,-0.1845,-0.1802,-0.1831,-0.1912,-0.1829,0,0,0,0,0]},{"header":{"parameterUnit":"m.s-1","parameterCategory":2,"la1":30.2991,"la2":30.254,"lo1":-89.0895,"lo2":-89.0444,"dy":0.0017,"dx":0.0017,"nx":28,"ny":28,"refTime":"2024-10-05T09:00:00:Z","depth":"2","parameterNumber":3,"parameterNumberName":"V-component_of_CURRENTS"},"data":[0,0,0,0,0,0,0,0,0,0,0,0,0,0,0,0,0,0,0,0,0,0,0,0,0,0,0,0,0,0,0,0,0,0,0,0,0,0,0,0,0,0,0,0,0,0,0,0,0,0,0,0,0,0,0,0,0,0,-0.019,-0.0189,0,-0.0107,-0.0106,-0.0105,-0.0062,-0.0062,-0.0062,-0.0062,0.0047,0.005,0.0052,0,0,0,0,0,0,0,0,0,0,0,0,0,-0.0266,-0.0265,-0.019,-0.0189,-0.0188,-0.0107,-0.0106,-0.0105,-0.0062,-0.0062,-0.0062,-0.0062,0.0046,0.0049,0.0053,0,0,0,0,0,0,0,0,0,0,0,0,0,-0.0213,-0.0265,-0.019,-0.0157,-0.0154,-0.0107,-0.0106,-0.0105,-0.0062,-0.0062,-0.0062,-0.0062,0.0045,0.0049,0.0053,0.0079,0,0,0.0066,0.0068,0,0,0,0,0,0,0,0,-0.0216,-0.0211,-0.0163,-0.016,-0.0155,-0.0095,-0.0093,-0.0042,-0.0062,-0.0097,-0.0062,-0.0062,0.0002,0.0009,0.0025,0.0084,0.0089,0.0067,0.0069,0.0071,0.0072,0,0,0,0,0,0,0,-0.022,-0.0214,-0.0157,-0.0162,-0.0157,-0.0131,-0.0124,-0.0083,-0.0048,-0.0094,-0.0091,-0.0082,0.0004,0.0021,0.0028,0.009,0.0067,0.007,0.0073,0.0075,0.0177,0.0177,0,0,0,0,0,0,-0.0233,-0.0217,-0.016,-0.0155,-0.0186,-0.013,-0.0122,-0.0114,-0.0049,-0.0039,-0.0082,-0.008,0.0013,0.0023,0.0032,0.0063,0.0071,0.0075,0.0078,0.0177,0.0177,0.0177,0,0,0,0,0,0,-0.0235,-0.0229,-0.0163,-0.0184,-0.0174,-0.0129,-0.0121,-0.0113,-0.0099,-0.004,-0.003,-0.0076,0.0014,0.0026,0.0067,0.0067,0.0077,0.0081,0.0177,0.0177,0.0177,0.0127,0,0,0,0,0,0,-0.0238,-0.023,-0.0232,-0.0185,-0.0173,-0.0144,-0.012,-0.0111,-0.0093,-0.009,-0.0032,-0.0022,0.0015,0.006,0.0071,0.0074,0.0085,0.0177,0.0177,0.0177,0.0129,0.0126,0.0123,0,0,0,0,0,-0.0241,-0.0244,-0.0233,-0.0226,-0.0176,-0.0144,-0.0136,-0.0103,-0.0093,-0.009,-0.0048,-0.0024,0.0069,0.0064,0.0076,0.008,0.0176,0.0177,0.0177,0.013,0.0126,0.0123,0,0,0,0,0,0,-0.0277,-0.0239,-0.0225,-0.0217,-0.0187,-0.0137,-0.0131,-0.0108,-0.0073,-0.0071,-0.0018,-0.0004,0.0031,0.0063,0.0055,0.011,0.0125,0.0128,0.0085,0.0082,0.0079,0.0061,0.0088,0,0,0,0,0,-0.0287,-0.0281,-0.0238,-0.0233,-0.022,-0.0177,-0.0161,-0.014,-0.0101,-0.0086,-0.0043,0.0001,0.0043,0.0067,0.0107,0.0139,0.0173,0.0149,0.0146,0.0143,0.0137,0.0193,0.0195,0.0178,0.0178,0.0178,0,0,-0.03,-0.0278,-0.0275,-0.024,-0.0215,-0.0204,-0.0168,-0.0149,-0.0136,-0.0078,-0.005,-0.0006,0.0049,0.0085,0.0103,0.0111,0.0166,0.0144,0.0141,0.0137,0.0194,0.0195,0.0197,0.0178,0.0178,0.0178,0,0,-0.0328,-0.0304,-0.0311,-0.0291,-0.0259,-0.0228,-0.0226,-0.018,-0.0156,-0.0122,-0.0077,-0.0034,0.0026,0.007,0.0099,0.0106,0.0148,0.0116,0.009,0.0144,0.0146,0.0148,0.0189,0.0195,0.0115,0.0115,0.0115,0,-0.0347,-0.0349,-0.0308,-0.031,-0.0299,-0.0244,-0.025,-0.0213,-0.016,-0.0137,-0.0123,-0.0026,0.002,0.0073,0.0073,0.01,0.0131,0.0097,0.014,0.0142,0.0145,0.0188,0.0195,0.0113,0.0113,0.0113,0.0113,0,-0.0378,-0.0382,-0.0385,-0.0369,-0.0349,-0.0345,-0.0292,-0.0266,-0.023,-0.0189,-0.0132,-0.0064,-0.0007,0.0016,0.0047,0.0091,0.0106,0.0128,0.0145,0.0144,0.0189,0.0197,0.0109,0.011,0.0111,0.0111,0,0,-0.0412,-0.0411,-0.0411,-0.0424,-0.0383,-0.0372,-0.0342,-0.0298,-0.0279,-0.0216,-0.0185,-0.0105,-0.0064,-0.0029,0.0024,0.007,0.0118,0.0099,0.0103,0.0133,0.0229,0.027,0.0283,0.0146,0.0148,0.0149,0.025,0,-0.0451,-0.0487,-0.046,-0.0483,-0.0498,-0.0439,-0.0418,-0.0367,-0.0311,-0.0265,-0.0178,-0.0131,-0.008,-0.0056,0.0002,0.0092,0.0138,0.0088,0.0231,0.0235,0.0267,0.0294,0.0256,0.0346,0.0259,0.026,0.0261,0,-0.0488,-0.051,-0.0551,-0.0554,-0.0552,-0.0548,-0.0503,-0.0475,-0.0385,-0.0342,-0.0267,-0.0197,-0.0107,-0.0075,0.0083,0.0047,0.0127,0.0194,0.0201,0.0262,0.0292,0.0335,0.0365,0.0276,0.0275,0.0274,0.0273,0,-0.0547,-0.0569,-0.061,-0.0612,-0.0601,-0.0598,-0.0578,-0.0503,-0.048,-0.039,-0.0363,-0.0238,-0.0178,-0.0056,0.0095,0.0088,0.026,0.0275,0.0387,0.039,0.0398,0.04,0.0373,0.0373,0.0373,0.0373,0.0372,0,-0.0603,-0.0633,-0.0646,-0.0672,-0.0706,-0.0666,-0.067,-0.0625,-0.0562,-0.0535,-0.0413,-0.0366,-0.0172,-0.0044,0.0083,0.0271,0.0261,0.0389,0.0426,0.0379,0.0379,0.0348,0.0344,0.0377,0.0376,0.0375,0.0374,0,-0.0664,-0.0674,-0.0725,-0.0738,-0.0743,-0.0765,-0.0749,-0.0746,-0.0673,-0.0634,-0.0611,-0.0451,-0.027,-0.0075,0.0137,0.0259,0.0426,0.0486,0.0416,0.0443,0.0518,0.051,0.0627,0.063,0.0632,0.0634,0.0635,0,-0.07,-0.0737,-0.0786,-0.0822,-0.0833,-0.0856,-0.0869,-0.0812,-0.0802,-0.0687,-0.0676,-0.0493,-0.0351,-0.0015,0.0235,0.0489,0.0479,0.0588,0.0578,0.0524,0.0548,0.0536,0.0526,0.0564,0.0565,0.0566,0.0566,0,-0.0767,-0.0784,-0.0827,-0.0908,-0.0946,-0.0979,-0.0989,-0.0998,-0.0917,-0.0866,-0.0763,-0.0639,-0.029,-0.0,0.0344,0.0482,0.0551,0.061,0.0586,0.0507,0.0473,0.0493,0.0484,0.0572,0.0571,0.0571,0.057,0.057,-0.0805,-0.0856,-0.0917,-0.0987,-0.1038,-0.1086,-0.1111,-0.1099,-0.1076,-0.0974,-0.0845,-0.0634,-0.0326,0.0165,0.0405,0.0635,0.0638,0.0685,0.0679,0.0673,0.0649,0.0621,0.0742,0.0742,0.0743,0.0743,0.0743,0,-0.0852,-0.0912,-0.099,-0.107,-0.1136,-0.1143,-0.1178,-0.1176,-0.1153,-0.1022,-0.0888,-0.0553,-0.02,0.0117,0.0493,0.0718,0.0691,0.0739,0.0657,0.0651,0.0646,0.0616,0.0703,0.0703,0.0704,0.0704,0,0,-0.088,-0.0968,-0.1013,-0.1132,-0.1188,-0.1255,-0.1277,-0.125,-0.117,-0.1046,-0.0877,-0.0619,-0.0212,0.004,0.033,0.0522,0.0517,0.0533,0.0544,0.0405,0.0396,0.0598,0.0544,0,0,0,0,0]}],[{"header":{"parameterUnit":"m.s-1","parameterCategory":2,"la1":30.2991,"la2":30.254,"lo1":-89.0895,"lo2":-89.0444,"dy":0.0017,"dx":0.0017,"nx":28,"ny":28,"refTime":"2024-10-05T09:00:00:Z","depth":"4","parameterNumber":2,"parameterNumberName":"U-component_of_CURRENTS"},"data":[0,0,0,0,0,0,0,0,0,0,0,0,0,0,0,0,0,0,0,0,0,0,0,0,0,0,0,0,0,0,0,0,0,0,0,0,0,0,0,0,0,0,0,0,0,0,0,0,0,0,0,0,0,0,0,0,0,0,-0.1583,-0.1583,0,-0.1627,-0.1628,-0.1628,-0.1657,-0.1657,-0.1658,-0.1658,-0.1695,-0.1696,-0.1697,0,0,0,0,0,0,0,0,0,0,0,0,0,-0.1509,-0.151,-0.1583,-0.1583,-0.1584,-0.1627,-0.1628,-0.1628,-0.1657,-0.1657,-0.1658,-0.1658,-0.1695,-0.1696,-0.1697,0,0,0,0,0,0,0,0,0,0,0,0,0,-0.1544,-0.1511,-0.1583,-0.1605,-0.1608,-0.1627,-0.1628,-0.1628,-0.1657,-0.1657,-0.1658,-0.1658,-0.1695,-0.1696,-0.1697,-0.1692,0,0,-0.17,-0.17,0,0,0,0,0,0,0,0,-0.1542,-0.1547,-0.1601,-0.1604,-0.1607,-0.1639,-0.1616,-0.165,-0.1657,-0.1636,-0.1658,-0.1659,-0.1677,-0.1679,-0.1684,-0.1694,-0.1696,-0.17,-0.17,-0.1701,-0.1701,0,0,0,0,0,0,0,-0.154,-0.1545,-0.1598,-0.1602,-0.1605,-0.1609,-0.1614,-0.1622,-0.1651,-0.1638,-0.1641,-0.1648,-0.1678,-0.1683,-0.1685,-0.1696,-0.17,-0.1701,-0.1701,-0.1702,-0.178,-0.1781,0,0,0,0,0,0,-0.1539,-0.1543,-0.1597,-0.16,-0.1577,-0.161,-0.1616,-0.1626,-0.1651,-0.1656,-0.1648,-0.165,-0.1681,-0.1684,-0.1686,-0.1757,-0.1701,-0.1702,-0.1702,-0.1779,-0.178,-0.1782,0,0,0,0,0,0,-0.1537,-0.1543,-0.1595,-0.1574,-0.1581,-0.1611,-0.1622,-0.1627,-0.1659,-0.1659,-0.1664,-0.1679,-0.1681,-0.1685,-0.1721,-0.1756,-0.1702,-0.1703,-0.1777,-0.1779,-0.1781,-0.185,0,0,0,0,0,0,-0.1534,-0.1542,-0.1562,-0.1574,-0.1582,-0.1627,-0.1622,-0.1628,-0.1663,-0.1666,-0.1687,-0.1689,-0.1682,-0.172,-0.1722,-0.1756,-0.1704,-0.1775,-0.1778,-0.178,-0.1846,-0.1855,-0.1862,0,0,0,0,0,-0.1532,-0.1553,-0.1563,-0.1571,-0.1605,-0.1628,-0.1634,-0.1654,-0.1664,-0.1684,-0.1701,-0.169,-0.1739,-0.1722,-0.1724,-0.1759,-0.1774,-0.1777,-0.178,-0.1843,-0.1853,-0.1862,0,0,0,0,0,0,-0.1536,-0.1559,-0.157,-0.1599,-0.1623,-0.1635,-0.1659,-0.1671,-0.17,-0.1711,-0.1708,-0.1712,-0.1756,-0.1749,-0.173,-0.179,-0.1755,-0.1759,-0.1802,-0.1811,-0.1819,-0.1818,-0.1705,0,0,0,0,0,-0.1545,-0.1567,-0.1588,-0.1615,-0.1629,-0.165,-0.1668,-0.1682,-0.1703,-0.1718,-0.1734,-0.175,-0.1767,-0.1783,-0.1793,-0.1827,-0.1815,-0.1851,-0.1859,-0.1866,-0.1868,-0.1881,-0.189,-0.1793,-0.1793,-0.1793,0,0,-0.1556,-0.1571,-0.1586,-0.1618,-0.1638,-0.1667,-0.1662,-0.1698,-0.1731,-0.1716,-0.1773,-0.178,-0.1782,-0.1821,-0.184,-0.1823,-0.189,-0.187,-0.1876,-0.1874,-0.1886,-0.1895,-0.1903,-0.1795,-0.1795,-0.1794,0,0,-0.1575,-0.1602,-0.1623,-0.1648,-0.1684,-0.1698,-0.1715,-0.1746,-0.1772,-0.1817,-0.1817,-0.1848,-0.1876,-0.1887,-0.1893,-0.1951,-0.1929,-0.1958,-0.2001,-0.2015,-0.2023,-0.203,-0.2033,-0.204,-0.1964,-0.1964,-0.1964,0,-0.159,-0.1617,-0.1635,-0.1663,-0.1691,-0.1716,-0.1749,-0.1778,-0.1821,-0.1846,-0.1847,-0.19,-0.1907,-0.1948,-0.197,-0.1969,-0.1968,-0.1965,-0.2025,-0.2032,-0.2037,-0.2039,-0.2045,-0.1968,-0.1968,-0.1967,-0.1967,0,-0.1612,-0.1652,-0.1669,-0.1713,-0.1745,-0.178,-0.1819,-0.1861,-0.1893,-0.1917,-0.1975,-0.1984,-0.2013,-0.2025,-0.2017,-0.2067,-0.2049,-0.2031,-0.2,-0.2051,-0.205,-0.2055,-0.1973,-0.1972,-0.1971,-0.197,0,0,-0.1594,-0.1671,-0.168,-0.1713,-0.1777,-0.18,-0.1866,-0.192,-0.1964,-0.2008,-0.2061,-0.2095,-0.2101,-0.2108,-0.2107,-0.2124,-0.2168,-0.2101,-0.21,-0.2102,-0.2195,-0.206,-0.2052,-0.2162,-0.2163,-0.2164,-0.218,0,-0.1609,-0.1666,-0.1706,-0.1773,-0.1806,-0.1861,-0.1918,-0.1975,-0.2021,-0.208,-0.2106,-0.2151,-0.2133,-0.2153,-0.217,-0.2168,-0.2184,-0.2164,-0.2147,-0.2146,-0.2017,-0.2054,-0.2168,-0.2183,-0.2184,-0.2185,-0.2186,0,-0.1605,-0.1649,-0.1716,-0.1804,-0.1825,-0.1876,-0.1965,-0.2018,-0.2102,-0.214,-0.2188,-0.2208,-0.2252,-0.2225,-0.2248,-0.2237,-0.2224,-0.2216,-0.2216,-0.2066,-0.202,-0.2119,-0.2195,-0.2194,-0.2193,-0.2193,-0.2192,0,-0.1557,-0.1651,-0.1706,-0.1737,-0.1842,-0.1892,-0.1949,-0.2038,-0.2084,-0.2179,-0.2216,-0.2269,-0.2294,-0.2297,-0.2281,-0.2274,-0.2292,-0.2275,-0.2142,-0.2132,-0.2219,-0.2211,-0.2289,-0.2289,-0.2289,-0.2289,-0.2289,0,-0.1534,-0.1581,-0.1695,-0.1724,-0.1791,-0.1876,-0.1953,-0.2017,-0.2113,-0.2158,-0.2238,-0.2263,-0.2313,-0.2325,-0.2307,-0.223,-0.231,-0.2149,-0.2126,-0.2248,-0.2244,-0.2223,-0.2215,-0.2289,-0.2289,-0.2289,-0.2289,0,-0.1462,-0.1543,-0.1608,-0.173,-0.1769,-0.1814,-0.1938,-0.1984,-0.209,-0.2151,-0.2182,-0.2271,-0.2284,-0.2309,-0.2316,-0.2239,-0.2199,-0.2152,-0.2285,-0.2269,-0.2028,-0.2024,-0.2007,-0.2003,-0.1999,-0.1995,-0.1993,0,-0.1425,-0.1454,-0.1584,-0.1621,-0.1681,-0.1768,-0.182,-0.1948,-0.199,-0.2125,-0.2132,-0.2204,-0.2241,-0.2138,-0.2185,-0.2145,-0.2115,-0.2081,-0.205,-0.2019,-0.1999,-0.2001,-0.2003,-0.1986,-0.1985,-0.1984,-0.1983,0,-0.1344,-0.1404,-0.1457,-0.153,-0.1597,-0.1661,-0.1748,-0.1765,-0.1901,-0.202,-0.2026,-0.2033,-0.2047,-0.2045,-0.2027,-0.1996,-0.2097,-0.2039,-0.2047,-0.2017,-0.1994,-0.1978,-0.1984,-0.197,-0.1972,-0.1973,-0.1974,0,-0.1278,-0.129,-0.1363,-0.1414,-0.1491,-0.1519,-0.159,-0.1639,-0.1697,-0.1852,-0.1848,-0.1929,-0.2024,-0.1967,-0.195,-0.1912,-0.1882,-0.181,-0.183,-0.1845,-0.1783,-0.1729,-0.1602,0,0,0,0,0,-0.1198,-0.1198,-0.1238,-0.1287,-0.1359,-0.1403,-0.1519,-0.1595,-0.173,-0.1685,-0.1763,-0.1771,-0.1761,-0.1804,-0.1729,-0.1875,-0.1887,-0.1779,-0.1814,-0.1894,-0.1909,-0.185,0,0,0,0,0,0,-0.1144,-0.1175,-0.1189,-0.1163,-0.1174,-0.1237,-0.1305,-0.1408,-0.1396,-0.154,-0.1542,-0.1653,-0.1667,-0.1771,-0.1687,-0.17,-0.1683,-0.1839,-0.1834,-0.1885,-0.1899,-0.1912,-0.1856,0,0,0,0,0]},{"header":{"parameterUnit":"m.s-1","parameterCategory":2,"la1":30.2991,"la2":30.254,"lo1":-89.0895,"lo2":-89.0444,"dy":0.0017,"dx":0.0017,"nx":28,"ny":28,"refTime":"2024-10-05T09:00:00:Z","depth":"4","parameterNumber":3,"parameterNumberName":"V-component_of_CURRENTS"},"data":[0,0,0,0,0,0,0,0,0,0,0,0,0,0,0,0,0,0,0,0,0,0,0,0,0,0,0,0,0,0,0,0,0,0,0,0,0,0,0,0,0,0,0,0,0,0,0,0,0,0,0,0,0,0,0,0,0,0,-0.0108,-0.0108,0,-0.0052,-0.0051,-0.005,-0.0018,-0.0018,-0.0018,-0.0018,0.0069,0.0071,0.0073,0,0,0,0,0,0,0,0,0,0,0,0,0,-0.0156,-0.0156,-0.0108,-0.0108,-0.0107,-0.0052,-0.0051,-0.005,-0.0018,-0.0018,-0.0018,-0.0018,0.0068,0.0071,0.0073,0,0,0,0,0,0,0,0,0,0,0,0,0,-0.0121,-0.0156,-0.0108,-0.0084,-0.0082,-0.0052,-0.0051,-0.005,-0.0018,-0.0018,-0.0018,-0.0017,0.0067,0.0071,0.0074,0.0091,0,0,0.0084,0.0085,0,0,0,0,0,0,0,0,-0.0123,-0.0119,-0.0089,-0.0086,-0.0083,-0.0042,-0.0036,-0.0001,-0.0018,-0.0042,-0.0018,-0.0017,0.0034,0.004,0.0051,0.0095,0.0099,0.0084,0.0086,0.0088,0.0089,0,0,0,0,0,0,0,-0.0126,-0.0121,-0.0086,-0.0088,-0.0084,-0.0065,-0.006,-0.0029,-0.0005,-0.004,-0.0037,-0.0031,0.0036,0.0047,0.0053,0.01,0.0084,0.0087,0.0089,0.009,0.0169,0.0169,0,0,0,0,0,0,-0.0135,-0.0124,-0.0087,-0.0084,-0.0103,-0.0065,-0.0059,-0.0055,-0.0005,0.0002,-0.0032,-0.003,0.0042,0.0049,0.0056,0.0081,0.0088,0.0091,0.0093,0.0169,0.0169,0.0169,0,0,0,0,0,0,-0.0136,-0.0132,-0.009,-0.0103,-0.0096,-0.0064,-0.006,-0.0054,-0.0044,0.0,0.0008,-0.0028,0.0042,0.0052,0.0083,0.0084,0.0092,0.0095,0.0169,0.0169,0.0169,0.013,0,0,0,0,0,0,-0.0138,-0.0133,-0.0136,-0.0103,-0.0096,-0.0078,-0.006,-0.0053,-0.0041,-0.0039,0.0006,0.0014,0.0043,0.0078,0.0086,0.0089,0.0098,0.0169,0.0169,0.0169,0.0131,0.0129,0.0127,0,0,0,0,0,-0.014,-0.0144,-0.0137,-0.0132,-0.01,-0.0078,-0.0072,-0.0049,-0.0041,-0.004,-0.0007,0.0013,0.0085,0.008,0.009,0.0094,0.0169,0.0169,0.0169,0.0132,0.0129,0.0127,0,0,0,0,0,0,-0.0166,-0.014,-0.0132,-0.0128,-0.0108,-0.0073,-0.007,-0.0053,-0.0027,-0.0026,0.0016,0.0027,0.0055,0.008,0.0074,0.0118,0.013,0.0132,0.0098,0.0095,0.0093,0.0078,0.0101,0,0,0,0,0,-0.0174,-0.0172,-0.0142,-0.0141,-0.0133,-0.0103,-0.0092,-0.0077,-0.0048,-0.0037,-0.0004,0.0031,0.0064,0.0082,0.0114,0.0138,0.0168,0.0147,0.0145,0.0143,0.0137,0.0189,0.019,0.017,0.017,0.017,0,0,-0.0184,-0.017,-0.0169,-0.0147,-0.013,-0.0125,-0.0096,-0.0084,-0.0077,-0.0031,-0.0011,0.0024,0.0069,0.0096,0.0111,0.0117,0.0163,0.0143,0.0141,0.0137,0.0189,0.0191,0.0193,0.017,0.017,0.017,0,0,-0.0206,-0.0192,-0.0198,-0.0186,-0.0165,-0.0144,-0.0143,-0.011,-0.0093,-0.0069,-0.0032,0.0003,0.0048,0.0085,0.0108,0.0113,0.0149,0.0121,0.01,0.0149,0.0151,0.0154,0.0189,0.0195,0.012,0.012,0.012,0,-0.0221,-0.0226,-0.0197,-0.0201,-0.0196,-0.0156,-0.0164,-0.0138,-0.0098,-0.0082,-0.007,0.0007,0.0044,0.0087,0.0087,0.0108,0.0136,0.0105,0.0146,0.0149,0.0152,0.0188,0.0195,0.0118,0.0119,0.0119,0.0119,0,-0.0245,-0.0253,-0.0256,-0.0249,-0.0237,-0.0237,-0.02,-0.0182,-0.0156,-0.0126,-0.008,-0.0025,0.0021,0.004,0.0065,0.0104,0.0117,0.0137,0.0151,0.0152,0.019,0.0197,0.0116,0.0116,0.0117,0.0117,0,0,-0.0269,-0.0275,-0.0277,-0.029,-0.0265,-0.026,-0.0241,-0.0211,-0.0199,-0.015,-0.0127,-0.0061,-0.0026,0.0002,0.0046,0.0088,0.0133,0.0114,0.0118,0.0144,0.0234,0.0221,0.0229,0.0161,0.0162,0.0163,0.0251,0,-0.03,-0.0332,-0.0316,-0.0341,-0.0355,-0.0316,-0.0304,-0.0269,-0.0228,-0.0193,-0.0121,-0.0084,-0.004,-0.002,0.0032,0.011,0.0153,0.0107,0.0233,0.0237,0.0222,0.0237,0.0167,0.0257,0.0259,0.026,0.0261,0,-0.0326,-0.0347,-0.0386,-0.0399,-0.0399,-0.0404,-0.0377,-0.0359,-0.0292,-0.0259,-0.0198,-0.0139,-0.0063,-0.0034,0.0105,0.0074,0.0145,0.0205,0.021,0.0216,0.0238,0.0259,0.0275,0.0274,0.0273,0.0272,0.0271,0,-0.0366,-0.0393,-0.0431,-0.0436,-0.0439,-0.0445,-0.0436,-0.0384,-0.0369,-0.03,-0.028,-0.0173,-0.0122,-0.0014,0.0115,0.0112,0.0261,0.0278,0.0333,0.0333,0.0335,0.0332,0.0367,0.0367,0.0367,0.0366,0.0366,0,-0.0402,-0.0433,-0.046,-0.0483,-0.0521,-0.0498,-0.0512,-0.0482,-0.0438,-0.042,-0.0321,-0.0282,-0.0115,-0.0007,0.0105,0.0244,0.0262,0.033,0.0358,0.0316,0.031,0.0341,0.0337,0.037,0.0369,0.0368,0.0368,0,-0.0437,-0.0456,-0.0506,-0.0534,-0.0547,-0.0572,-0.0579,-0.058,-0.053,-0.0502,-0.0484,-0.0354,-0.0207,-0.0042,0.0142,0.0227,0.036,0.0401,0.0337,0.0359,0.04,0.0393,0.0473,0.0474,0.0474,0.0474,0.0475,0,-0.0457,-0.049,-0.0554,-0.0592,-0.0612,-0.0645,-0.0666,-0.0634,-0.0627,-0.0545,-0.0535,-0.0393,-0.0289,-0.0039,0.0131,0.0351,0.0377,0.0439,0.0426,0.0393,0.0412,0.0405,0.0397,0.0475,0.0475,0.0475,0.0475,0,-0.0494,-0.0522,-0.0563,-0.0648,-0.0694,-0.0734,-0.0756,-0.0759,-0.0706,-0.0667,-0.0566,-0.0421,-0.0255,-0.0048,0.0127,0.028,0.0398,0.0443,0.0443,0.0432,0.0396,0.0413,0.0406,0.0476,0.0476,0.0476,0.0476,0,-0.0515,-0.0557,-0.0621,-0.0687,-0.0753,-0.0797,-0.0805,-0.0784,-0.0766,-0.0665,-0.0636,-0.0443,-0.0321,-0.0085,0.0071,0.023,0.0266,0.0303,0.0311,0.0312,0.024,0.017,0.0205,0,0,0,0,0,-0.0528,-0.0581,-0.0654,-0.0725,-0.079,-0.0826,-0.0851,-0.0841,-0.0796,-0.0735,-0.0678,-0.052,-0.0261,-0.0149,0.0008,0.0069,0.0285,0.0255,0.0328,0.0482,0.048,0.0422,0,0,0,0,0,0,-0.0541,-0.0614,-0.0655,-0.0738,-0.0791,-0.0854,-0.0874,-0.0846,-0.0799,-0.0735,-0.0598,-0.05,-0.025,-0.035,0.0005,0.0055,0.0118,0.0386,0.0388,0.0482,0.0481,0.048,0.0419,0,0,0,0,0]}]]